This is the latest recevied weather packets stored in our database for station/object KD8UTJ. If no packets are shown the sender has not sent any weather packets the latest 10 day(s).
| Time | Temp. | Humidity | Pressure | Rain* | Wind** | Luminosity | Snow |
|---|---|---|---|---|---|---|---|
| 1778009877 | 26.67° C | 53% | 1018.1 hPa | 0 mm | - | 624 W/m² | - |
| 1778009575 | 26.67° C | 55% | 1018.2 hPa | 0 mm | - | 622 W/m² | - |
| 1778009273 | 26.67° C | 54% | 1018.4 hPa | 0 mm | - | 682 W/m² | - |
| 1778008970 | 26.11° C | 55% | 1018.4 hPa | 0 mm | - | 703 W/m² | - |
| 1778008668 | 26.67° C | 57% | 1018.4 hPa | 0 mm | - | 703 W/m² | - |
| 1778008367 | 26.11° C | 58% | 1018.4 hPa | 0 mm | - | 708 W/m² | - |
| 1778008062 | 26.11° C | 54% | 1018.4 hPa | 0 mm | - | 718 W/m² | - |
| 1778007757 | 26.11° C | 54% | 1018.3 hPa | 0 mm | - | 723 W/m² | - |
| 1778007454 | 26.11° C | 52% | 1018.4 hPa | 0 mm | - | 735 W/m² | - |
| 1778007151 | 26.11° C | 59% | 1018.5 hPa | 0 mm | - | 739 W/m² | - |
| 1778006846 | 26.67° C | 57% | 1018.6 hPa | 0 mm | - | 756 W/m² | - |
| 1778006544 | 26.11° C | 57% | 1018.5 hPa | 0 mm | - | 759 W/m² | - |
| 1778006240 | 26.11° C | 60% | 1018.6 hPa | 0 mm | - | 764 W/m² | - |
| 1778005939 | 25.56° C | 59% | 1018.8 hPa | 0 mm | - | 774 W/m² | - |
| 1778005634 | 26.67° C | 57% | 1019.1 hPa | 0 mm | - | 784 W/m² | - |
| 1778005332 | 26.11° C | 58% | 1019 hPa | 0 mm | - | 768 W/m² | - |
| 1778005028 | 26.11° C | 59% | 1018.9 hPa | 0 mm | - | 821 W/m² | - |
| 1778004726 | 25.56° C | 61% | 1018.9 hPa | 0 mm | - | 779 W/m² | - |
| 1778004421 | 25.56° C | 62% | 1018.9 hPa | 0 mm | - | 771 W/m² | - |
| 1778004119 | 26.11° C | 59% | 1019 hPa | 0 mm | - | 793 W/m² | - |
| 1778003815 | 26.67° C | 58% | 1018.9 hPa | 0 mm | - | 775 W/m² | - |
| 1778003511 | 26.67° C | 61% | 1018.8 hPa | 0 mm | - | 795 W/m² | - |
| 1778003208 | 26.11° C | 61% | 1019 hPa | 0 mm | - | 825 W/m² | - |
| 1778002904 | 27.22° C | 57% | 1018.9 hPa | 0 mm | - | 653 W/m² | - |
| 1778002601 | 26.11° C | 58% | 1019 hPa | 0 mm | - | 827 W/m² | - |
* Rain latest hour (hover to see other rain measurements)
** Current wind speed in m/s (hover to see current wind gust speed)